Location: Ballingbuur
(53.0000°N, 5.7667°E)
Time: 06:37:26
(UTC+00:00)

COSMO-SKYMED 1 - Pass Details

Date: 29 November 2020
Orbit: 621 x 623 km, 97.9° (Epoch: 23 January)

Event Time Altitude Azimuth Distance (km) Brightness Sun altitude
Rises 05:00:24 0° 177° (S) 2,894 6.1 -20.7°
Reaches altitude 10° 05:02:38 10° 182° (S) 1,992 5.2 -20.4°
Maximum altitude 05:06:52 52° 260° (W) 778 2.6 -19.8°
Enters shadow 05:07:38 46° 296° (WNW) 846 2.8 -19.7°
